This demonstration page uses our WeatherBlox Daily Observations layout. Learn more.

Left ArrowRight Arrow

39.01783, -85.05884

Hourly Observations for July 30, 2018

Temp ( °F °C ) Dew Point ( °F °C ) Humidity (%) Winds ( mph kmh ) Pressure ( in mb ) Visibility ( mi km ) Precip ( " mm )
12:52 am 00:52 Cloudy 73 22.8 64 17.8 74 74 NE 10 17 30.06 1018 10 16 0.00 0.00
1:52 am 01:52 Cloudy 72 22.2 64 17.8 76 76 ENE 8 13 30.05 1018 10 16 0.00 0.00
2:52 am 02:52 Cloudy 71 21.7 65 18.3 81 81 N 6 9 30.05 1018 10 16 0.00 0.03
3:52 am 03:52 Cloudy with Light Rain 70 21.1 66 18.9 87 87 NNE 8 13 30.04 1017 10 16 0.00 0.03
4:52 am 04:52 Cloudy with Light Rain 69 20.6 66 18.9 90 90 NE 8 13 30.04 1017 10 16 0.00 0.03
5:52 am 05:52 Cloudy with Light Rain 68 20 66 18.9 93 93 E 12 19 30.02 1017 10 16 0.00 0.03
6:52 am 06:52 Cloudy 69 20.6 64 17.8 84 84 NE 9 15 30.02 1017 10 16 0.00 0.03
7:52 am 07:52 Cloudy 69 20.6 64 17.8 84 84 ENE 8 13 30.03 1017 10 16 0.00 0.00
8:52 am 08:52 Mostly Cloudy 70 21.1 64 17.8 82 82 NE 8 13 30.02 1017 10 16 0.00 0.00
9:52 am 09:52 Mostly Cloudy 72 22.2 64 17.8 76 76 E 10 17 30.02 1017 10 16 0.00 0.03
10:52 am 10:52 Cloudy 73 22.8 64 17.8 74 74 ENE 6 9 30.03 1017 10 16 0.00 0.00
11:52 am 11:52 Mostly Cloudy 77 25 65 18.3 66 66 VRB 3 6 30.03 1017 10 16 0.00 0.00
12:52 pm 12:52 Cloudy 79 26.1 64 17.8 60 60 ESE 7 11 30.02 1017 10 16 0.00 0.00
1:52 pm 13:52 Mostly Cloudy 81 27.2 65 18.3 58 58 NE 9 15 30.01 1016 10 16 0.00 0.00
2:52 pm 14:52 Cloudy 81 27.2 65 18.3 58 58 ENE 7 11 30.00 1016 10 16 0.00 0.00
3:52 pm 15:52 Cloudy 80 26.7 64 17.8 58 58 N 6 9 30.00 1016 10 16 0.00 0.00
4:52 pm 16:52 Cloudy with Light Rain 78 25.6 67 19.4 69 69 N 7 11 29.99 1016 9 14 0.00 0.03
5:52 pm 17:52 Cloudy 77 25 67 19.4 71 71 N 8 13 29.98 1015 10 16 0.00 0.03
6:52 pm 18:52 Cloudy 78 25.6 66 18.9 67 67 ENE 8 13 29.97 1015 10 16 0.00 0.00
7:52 pm 19:52 Cloudy 77 25 66 18.9 69 69 E 9 15 29.96 1015 10 16 0.00 0.00
8:52 pm 20:52 Cloudy 76 24.4 67 19.4 74 74 ENE 6 9 29.97 1015 10 16 0.00 0.00
9:52 pm 21:52 Cloudy 75 23.9 67 19.4 76 76 NNE 7 11 29.98 1015 10 16 0.00 0.00
10:52 pm 22:52 Cloudy 75 23.9 67 19.4 76 76 NNE 9 15 29.99 1016 10 16 0.00 0.00
11:52 pm 23:52 Cloudy 73 22.8 67 19.4 81 81 NNE 8 13 29.99 1016 10 16 0.00 0.00

Powered by AerisWeather